Showing default

RAVAN, 41849

Orbit data source: Space-Track

RAVAN, 41849 is an American payload satellite in SSO that was launched on Fri, 11 Nov 2016 UTC via an ATLAS V 401 launch vehicle from the Air Force Western Test Range (AFWTR). Payload-class satellites include a variety of spacecraft equipped with specific instruments for various scientific and technological missions. These include communications satellites like Starlink; space stations such as the ISS; scientific satellites like the Hubble; Earth observation satellites from companies like Planet Labs, Umbra, and HawkEye 360; GPS; miniature CubeSats for education and research; and military/defense satellites.

Loading next visibility...
Identifier
41849, 2016-067B
Orbit
SSO
Country
Flag of USUS
Related business
Manufacturer
Blue Canyon
Mission
Operational Civil Tech/EO-Sci
Bus & Motor
CUBESAT 3U, Unknown motor
Mass
5 kg wet, 5 kg dry
Launch date (UTC)
2016-11-11 (10 years ago)
Launch vehicle
ATLAS V 401
Launch site
Air Force Western Test Range (AFWTR)
Object type
Payload
Rocket body
Debris
Shape & HBR
Box + 2 Pan, 0.1 m
Radar Cross Section
0.035 m², Medium (>0.1 m² and < 1m²)

Expand to show TLE details & history
Last TLE update: 2 days ago

TLE from 2 days ago
0 RAVAN
1 41849U 16067B   26171.26160767  .00045505  00000-0  67877-3 0  9995
2 41849  97.9878  61.1885 0003898  22.2879 337.8542 15.54942003528171
Epoch: 2026-06-20T06:16Z
TLE epoch observation values (Epoch: 2026-06-20T06:16:42.902Z)
Latitude
-0.00004°
Longitude
58.53098°
Altitude
402.993 km
Speed
7.67 km/s
True Right ascension
04h 04m 45s
True Declination
0° 00' 00"
Sunlit
Object was in daylight at epoch
Visualization orbit readout
Latitude
Unknown
Longitude
Unknown
Altitude
Unknown
Speed
Unknown
Apparent Right ascension
Unknown
Apparent Declination
Unknown
Sunlit
N/A
Visualization observer readout
Local Sidereal Time
21:38:11
Azimuth
Unknown
Elevation
Unknown
Doppler factor
Unknown
Orbital elements
Apogee altitude
401.909 km
Perigee altitude
396.625 km
Semi-major axis
6,777.404 km
Eccentricity
0.00039
Inclination
97.9878°
RAAN
61.1885°
Arg. of periapsis
22.2879°
True anomaly
337.83735°
Mean anomaly
337.8542°
Eccentric anomaly
337.84578°
Mean motion
3.88999 °/min
Orbital period
92.55 mins
BSTAR
0.00067877
Loading maneuver chart data...
Computing Atmospheric mass density...
Loading historical data...
Loading historical data...
Loading historical data...
Loading historical data...
Loading historical data...
Loading historical data...
Loading historical data...

Documentation

Showing up to 5 results
|